Regional Weather Roundup
Issued by NWS

Home | Current Version | Previous Version | Text Only | Print | Product List | Glossary On
Versions: 1 2 3 4 5 6 7 8 9 10 11 12 13 14 15 16 17 18 19 20 21 22 23 24 25 26 27 28 29 30 31 32 33 34 35 36 37 38 39 40 41 42 43 44 45 46 47 48 49 50
000
ASUS46 KLOX 241812
RWRCA

SOUTHERN CALIFORNIA WEATHER ROUNDUP
NATIONAL WEATHER SERVICE OXNARD CALIFORNIA
1100 AM PDT THU JUL 24 2014

NOTE: "FAIR" INDICATES FEW OR NO CLOUDS BELOW 12,000 FEET WITH NO
SIGNIFICANT WEATHER AND/OR OBSTRUCTIONS TO VISIBILITY.

  -  STATIONS PRECEEDED BY AN ASTERISK (*) ARE NOT NWS OR FAA
     STATIONS AND ARE NOT SUBJECT TO NWS AND FAA QUALITY CONTROL.

CAZ041-042-087-241900-
LA AND ORANGE COUNTY COASTAL AREAS


CITY           SKY/WX    TMP DP  RH WIND       PRES   REMARKS
L.A. DOWNTOWN  SUNNY     87  60  40 SW5       29.83F
L.A. AIRPORT   MOSUNNY   80  62  54 W8        29.85S
LONG BEACH     SUNNY     81  63  54 S8        29.84F

CITY           SKY/WX    TMP DP  RH WIND       PRES   REMARKS
AVALON           N/A     72 N/A N/A MISG        N/A
FULLERTON      SUNNY     88  57  34 CALM      29.82F
*GETTY CENTER    N/A     86  59  39 S7          N/A
HAWTHORNE      SUNNY     86  62  44 VRB5      29.84F
*LEO CARRILLO    N/A     76  64  65 W8          N/A
*LOS ALAMITOS  SUNNY     85  65  51 S8        29.83F
*REDONDO BEACH   N/A     78  64  60 W6        29.84F
SANTA ANA      MOSUNNY   86  64  47 SW9       29.83F
STA MONICA APT SUNNY     81  60  48 SW7       29.85F
TORRANCE       SUNNY     86  66  51 W12       29.85F
*UCLA            N/A     81  57  44 SW7       29.83S

$$

CAZ547-548-048-241900-
LA COUNTY VALLEYS AND INLAND EMPIRE


CITY           SKY/WX    TMP DP  RH WIND       PRES   REMARKS
BURBANK        SUNNY     92  47  21 VRB3      29.85F
VAN NUYS       SUNNY     90  54  29 CALM      29.85F

CITY           SKY/WX    TMP DP  RH WIND       PRES   REMARKS
CORONA AIRPORT CLEAR     90  53  28 MISG      29.85F
CHINO          MOSUNNY   90  51  26 VRB3      29.86F
MARCH AFB      SUNNY     95  38  13 VRB1      29.89F HX  90
*NORTHRIDGE      N/A     91  48  22 SE3         N/A
ONTARIO        MOSUNNY   90  48  23 CALM      29.86F
*PASADENA        N/A     93  57  29 E5          N/A  HX  92
POMONA         SUNNY     90  48  24 CALM      29.89F
RIVERSIDE      SUNNY     91  46  21 VRB5      29.85F
SAN BERNARDINO MOSUNNY   91  37  15 W3        29.87F
*SAN GABRIEL     N/A     89  49  24 CALM      29.79F
*SAN RAFAEL HI   N/A     96  58  27 N2          N/A  HX  95
*SAUGUS          N/A     97  49  19 SW3         N/A  HX  94
*WHITEMAN AP   SUNNY     90  50  25 CALM      29.89F
*WHITTIER HILL   N/A     89  65  44 SW5         N/A  HX  91
*WOODLAND HILL   N/A     95  48  20 NE3         N/A  HX  91

$$

CAZ054-055-241900-
LA AND SAN BERNARDINO COUNTY MOUNTAINS


CITY           SKY/WX    TMP DP  RH WIND       PRES   REMARKS
*BIG BEAR AIRP CLEAR     81  32  17 W7        30.30F
*CHILAO          N/A     90  18   7 S7          N/A
MT WILSON NWS    N/A     88   9   5 MISG        N/A
SANDBERG       SUNNY     84  41  21 NW12      30.12S
*WARM SPRINGS    N/A     92  44  18 CALM        N/A

$$

CAZ028-029-059-060-099-241900-
ANTELOPE VALLEY AND SURROUNDING AREAS


CITY           SKY/WX    TMP DP  RH WIND       PRES   REMARKS
LANCASTER      SUNNY     90  42  18 VRB5      29.95F
PALMDALE       SUNNY     88  41  19 N5        29.97F
*POPPY PARK      N/A     94  46  18 NW7         N/A  HX  90

CITY           SKY/WX    TMP DP  RH WIND       PRES   REMARKS
29 PALMS       MOSUNNY   99  32   9 CALM      29.97F HX  93
BARSTOW/DAGGET SUNNY     93  43  17 W13       29.92F
BISHOP         SUNNY     89  21   8 CALM      30.04F
CHINA LAKE     SUNNY     92  41  17 VRB5      29.93F
EDWARDS AFB    MOSUNNY   89  50  26 N7        29.93F
MOJAVE         FAIR      90  43  19 CALM      29.98F
NEEDLES        SUNNY    110  51  14 S7        29.81F HX 107
VICTORVILLE    SUNNY     90  36  14 CALM      29.99F

$$

CAZ039-040-241900-
VENTURA AND SANTA BARBARA COUNTY COAST


CITY           SKY/WX    TMP DP  RH WIND       PRES   REMARKS
CAMARILLO      SUNNY     83  62  49 SW7       29.85F
NWS OXNARD       N/A     79  62  54 W5        29.85S
OXNARD AIRPORT SUNNY     74  62  66 W10       29.85F
*POINT MUGU    SUNNY     79  63  57 W9        29.86F
SBA APT/GOLETA SUNNY     77  64  64 VRB6      29.84F
*SANTA BARBARA   N/A     79  63  57 CALM      29.92F
*VENTURA         N/A     77  61  56 SW5       29.87S

$$

CAZ044-045-241900-
VENTURA COUNTY VALLEYS


CITY           SKY/WX    TMP DP  RH WIND       PRES   REMARKS
*SIMI VALLEY     N/A     90  56  31 CALM      29.79F
*OJAI            N/A     96  58  28 NW3       29.76F HX  95
*FILLMORE        N/A     94  58  29 CALM      29.73F HX  93

$$

CAZ053-241900-
VENTURA COUNTY MOUNTAINS


CITY           SKY/WX    TMP DP  RH WIND       PRES   REMARKS
*LOCKWOOD VLY    N/A     88  14   6 MISG        N/A
*ROSE VALLEY     N/A     95  34  11 MISG        N/A  HX  90

$$

CAZ034-035-036-241900-
CENTRAL COAST AND SANTA YNEZ VALLEY


CITY           SKY/WX    TMP DP  RH WIND       PRES   REMARKS
SAN LUIS OBISP SUNNY     79  58  48 NW20      29.90F
SANTA MARIA    SUNNY     76  59  55 NW21G29   29.90F

CITY           SKY/WX    TMP DP  RH WIND       PRES   REMARKS
*CAL POLY SLO    N/A     82  61  47 SW8         N/A
*CAMBRIA         N/A     64  60  84 NE12      29.85F
*LOMPOC          N/A     72  57  60 W17G24    29.92S
*PISMO BEACH     N/A     72  62  71 W7        29.90F

$$

CAZ037-038-051-241900-
SAN LUIS OBISPO COUNTY INTERIOR AND CUYAMA VALLEY


CITY           SKY/WX    TMP DP  RH WIND       PRES   REMARKS
*CUYAMA          N/A     79  54  41 NE2       29.89F
PASO ROBLES    SUNNY     81  54  39 NW5       29.97F

$$

CAZ032-033-061-241900-
SOUTHERN DESERTS


CITY           SKY/WX    TMP DP  RH WIND       PRES   REMARKS
BLYTHE         SUNNY    105  46  13 S5        29.77F HX 101
IMPERIAL       SUNNY    104  53  18 E10       29.73F HX 102
PALM SPRINGS   SUNNY    105  35   9 E5        29.79F HX  99
THERMAL        SUNNY    105  53  17 CALM      29.71F HX 103

$$

ELSEWHERE ACROSS THE WESTERN UNITED STATES AND MEXICO


CITY           SKY/WX    TMP DP  RH WIND       PRES   REMARKS
DENVER, CO     MOSUNNY   95  43  16 W3        30.11F HX  91
GRAND CANYON,  PTSUNNY   81  49  32 S9        30.35F
HONOLULU, HI   MOSUNNY   81  64  57 NE14G21   30.06R
KAHULUI, MAUI  MOSUNNY   75  70  83 NE10      30.07R
LAKE TAHOE, CA SUNNY     71  40  32 NE8       30.24F
LAS VEGAS, NV  MOSUNNY  105  28   7 S16G22    29.86F HX  98
MAMMOTH LAKES, FAIR      79  10   7 SE6       30.28F
MEXICO CITY, M PTSUNNY   66  48  52 NE6       30.35F
PHOENIX, AZ    MOSUNNY  108  53  16 SE10      29.83F HX 106
PORTLAND, OR   CLOUDY    63  54  72 S9        30.26R
RENO, NV       SUNNY     76  34  21 CALM      30.17F
SALT LAKE CITY MOSUNNY   88  44  21 NW14      30.04S
SAN DIEGO, CA  MOSUNNY   77  64  64 W7        29.85F
SAN FRANCISCO, MOSUNNY   70  61  73 CALM      29.99F
SAN JOSE, CA   MOSUNNY   72  58  61 NW5       29.99F
SEATTLE, WA    CLOUDY    61  54  77 SW14G21   30.18R
TIJUANA, MEX   SUNNY     81  61  50 NW9       29.87

$$

STATION/POSITION TIME  TEMP    WIND        PRES    VSBY  WAVE
                       AIR SEA DIR/SP/G                  HT/PER
                 (UTC) (F)     (DEG/KT/KT) (MB)    (MI)  (FT/S)
POINT ARGUELLO B NOT AVBL
WEST SANTA BARBA 1800   61 56  320/ 23/ 27 1011.1F         7/ 8
POINT CONCEPTION NOT AVBL
EAST SANTA BARBA 1800   65 66  250/  6/  6 1011.1F
SANTA MONICA BAY 1800   68 69  330/  6/  6 1010.7F         3/ 6


USA.gov is the U.S. government's official web portal to all federal, state and local government web resources and services.